Regional Weather Roundup
Issued by NWS Sterling, VA

Home | Current Version | Previous Version | Text Only | Print | Product List | Glossary Off
Versions: 1 2 3 4 5 6 7 8 9 10 11 12 13 14 15 16 17 18 19 20 21 22 23 24 25 26 27 28 29 30 31 32 33 34 35 36 37 38 39 40 41 42 43 44 45 46 47 48 49 50

251
ASUS41 KLWX 291511
RWRLWX

REGIONAL WEATHER ROUNDUP
NATIONAL WEATHER SERVICE BALTIMORE MD/WASHINGTON DC
1100 AM EDT MON MAY 29 2017

Note: "FAIR" indicates few or no clouds below 12,000 feet
with no significant weather and/or obstructions to visibility.
 TC=TEMPERATURE CELSIUS

 * =Non NWS site. Station does not report precipitation (e.g. rain,
    snow, etc.), thunder, or fog.

DCZ001-MDZ009-015-VAZ040>042-051-053>054-291600-
WASHINGTON METRO

CITY           SKY/WX    TMP DP  RH WIND       PRES   REMARKS
WASHINGTON NAT PTSUNNY   70  66  87 SE5       29.89F
DULLES         PTSUNNY   73  64  73 VRB3      29.88F
ANDREWS AFB    PTSUNNY   70  68  94 CALM      29.88F
FT BELVOIR     PTSUNNY   72  66  83 S7        29.89S
QUANTICO       PTSUNNY   72  68  87 E6        29.90R
COLLEGE PARK*  CLOUDY    68  64  87 CALM      29.89S
LEESBURG*      PTSUNNY   77  64  65 N9        29.89R
MANASSAS*      PTSUNNY   73  66  78 VRB3      29.89F
GAITHERSBURG*  PTSUNNY   72  64  76 VRB3      29.90S

$$

MDZ006>007-011-014-291600-
BALTIMORE METRO

CITY           SKY/WX    TMP DP  RH WIND       PRES   REMARKS
BWI AIRPORT    CLOUDY    64  63  96 VRB3      29.89S
MD SCIENCE CTR   N/A     65  62  90 MISG      29.90S
MARTIN STATE   CLOUDY    63  63 100 CALM      29.91S
ANNAPOLIS      CLOUDY    66  64  93 SE5       29.90S
FORT MEADE*    CLOUDY    64  61  88 CALM      29.92S

$$

MDZ012-015-019>023-291600-
MARYLAND EASTERN SHORE

CITY           SKY/WX    TMP DP  RH WIND       PRES   REMARKS
OCEAN CITY     CLOUDY    63  61  93 NE8       29.90R
SALISBURY      CLOUDY    64  63  96 NW5       29.89R
BAY BRIDGE AP* CLOUDY    64  61  88 CALM      29.90S
CAMBRIDGE*     CLOUDY    66  63  88 N5        29.90S
EASTON*        CLOUDY    64  61  88 CALM      29.93S FOG

$$

MDZ017>025-291600-
SOUTHERN MARYLAND

CITY           SKY/WX    TMP DP  RH WIND       PRES   REMARKS
PATUXENT RIVER CLOUDY    68  67  96 NW5       29.90R
ST INIGOES     CLOUDY    70  67  90 N3        29.89R
LEONARDTOWN*   CLOUDY    70  64  83 NW5       29.91R

$$

MDZ003>005-291600-
NORTH CENTRAL MARYLAND

CITY           SKY/WX    TMP DP  RH WIND       PRES   REMARKS
FREDERICK*     PTSUNNY   73  73 100 W5        29.90F
HAGERSTOWN APT CLOUDY    73  63  70 W8        29.88R
WESTMINSTER*   CLOUDY    70  64  83 CALM      29.89S

$$

MDZ501>502-291600-
WESTERN MARYLAND

CITY           SKY/WX    TMP DP  RH WIND       PRES   REMARKS
OAKLAND*       CLOUDY    61  54  77 W7        29.97R
CUMBERLAND*    CLOUDY    73  59  60 W8        29.93R

$$

VAZ025>031-291600-
SHENANDOAH VALLEY

CITY           SKY/WX    TMP DP  RH WIND       PRES   REMARKS
WINCHESTER*    MOSUNNY   72  61  68 W3        29.89R
FRONT ROYAL*   PTSUNNY   75  63  64 CALM      29.88S
LURAY*         MOSUNNY   75  63  64 S5        29.89F
NEW MARKET*    MOSUNNY   76  57  52 CALM      29.89S
STAUNTON*      PTSUNNY   74  62  66 SE3       29.93S
WAYNESBORO*    CLOUDY    74  65  74 CALM      29.93S

$$

WVZ021-048>050-054>055-291600-
EASTERN WEST VIRGINIA PANHANDLE

CITY           SKY/WX    TMP DP  RH WIND       PRES   REMARKS
MARTINSBURG    PTSUNNY   72  61  68 CALM      29.87F
PETERSBURG*    CLOUDY    74  61  63 W9        29.93R

$$

VAZ036>039-050-291600-
CENTRAL FOOTHILLS

CITY           SKY/WX    TMP DP  RH WIND       PRES   REMARKS
CHARLOTTESVILL SUNNY     78  66  66 VRB5      29.89R
CULPEPER*      MOSUNNY   73  68  82 CALM      29.90S
ORANGE*        SUNNY     77  64  65 SE6       29.89R
GORDONSVILLE*  SUNNY     77  66  69 SW5       29.89S
WARRENTON*     PTSUNNY   75  63  64 CALM      29.89S

$$

VAZ055>057-291600-
NORTH AND CENTRAL PIEDMONT

CITY           SKY/WX    TMP DP  RH WIND       PRES   REMARKS
FREDERICKSBRG* SUNNY     75  69  80 W3        29.88S
STAFFORD*      PTSUNNY   74  69  85 NE3       29.93R

$$

NCZ024-NYZ072-PAZ021-071-VAZ022-071-291600-
OTHER REGIONAL OBSERVATIONS

CITY           SKY/WX    TMP DP  RH WIND       PRES   REMARKS
NEW YORK CITY  LGT RAIN  57  55  93 E9        29.96R
PHILADELPHIA   CLOUDY    59  56  89 E7        29.92R
PITTSBURGH     MOSUNNY   70  58  65 W9        29.90R
ROANOKE        MOSUNNY   77  62  59 VRB3      29.97S
RICHMOND       MOSUNNY   80  66  62 W13       29.89R
RALEIGH        MOSUNNY   81  63  54 W8        29.95R

$$

ANZ530>537-291600-
MARINE OBSERVATIONS

STATION/POSITION TIME  TEMP    WIND        PRES
                       AIR SEA DIR/SP/G
                 (UTC) (F)     (DEG/KT/KT) (MB)
THOMAS PT LIGHT  1500   63 65   50/  3/  3   N/A
BALT KEY BRIDGE  1442   62     130/  3/  4 1012.2S
COVE POINT       1442   63      10/  5/  6 1013.0R
LEWISETTA        1442   68 70   80/  2/  3 1011.8F
SOLOMONS ISLAND  1442   68 68  290/  2/  3   N/A
PINEY POINT      1448          350/  5/  5   N/A

$$





USA.gov is the U.S. government's official web portal to all federal, state and local government web resources and services.